Regional Weather Roundup
Issued by NWS Binghamton, NY

Home | Current Version | Previous Version | Text Only | Print | Product List | Glossary On
Versions: 1 2 3 4 5 6 7 8 9 10 11 12 13 14 15 16 17 18 19 20 21 22 23 24 25 26 27
000
ASUS41 KBGM 250310
RWRBGM
RWRBGM
BINGHAMTON REGIONAL WEATHER ROUNDUP
NATIONAL WEATHER SERVICE BINGHAMTON NY
1100 PM EDT THU APR 24 2014

Note: "fair" indicates few or no clouds below 12,000 feet with no
significant weather and/or obstructions to visibility.

* = Station(s) that does not report precipitation, such as rain,
snow, etc, also no thunder or fog.

!NYZ009-015>018-022>025-036-037-044>046-055>057-062-250400
...CENTRAL NEW YORK...

CITY           SKY/WX    TMP DP  RH WIND       PRES   REMARKS
BINGHAMTON     CLEAR     40  17  39 N6        30.04S
CORTLAND       FAIR      32  27  80 CALM      30.07F
DANSVILLE      CLEAR     39  24  55 SE5       30.06F
ELMIRA         CLEAR     35  22  58 CALM      30.06S
ITHACA         CLEAR     32  24  72 CALM      30.07F
HAMILTON       CLEAR     34  27  75 CALM      30.06
HORNELL        CLEAR     34  23  64 E5        30.08F WCI  30
MONTICELLO     CLEAR     39  16  38 W6        30.04S WCI  35
NORWICH        CLEAR     32  23  69 CALM      30.07S
ONEONTA        CLEAR     36  16  44 CALM      30.02S
PENN YAN       CLEAR     33  25  72 S5        30.05F WCI  29
ROME           CLEAR     34  20  56 NW5       30.08S WCI  30
SIDNEY         CLEAR     36  25  64 SW5       30.06S WCI  32
SYRACUSE       CLEAR     40  21  46 CALM      30.07S
$$

!PAZ038>040-043-044-047-048-072-250400
...NORTHEAST PENNSYLVANIA...

CITY           SKY/WX    TMP DP  RH WIND       PRES   REMARKS
SCRANTON       CLEAR     43  18  36 NW7       30.05S
TOWANDA*       CLEAR     37  21  52 SW6       30.07S WCI  33
$$
&&
KEY
WCI = WIND CHILL INDEX
VSB = VISIBILITY
HX  = HEAT INDEX
$$



USA.gov is the U.S. government's official web portal to all federal, state and local government web resources and services.